Location: Radford
(37.1320°N, 80.5770°W)
Time: 05:47:39
(UTC-04:00)

Daily predictions for brighter satellites

Satellite Brightness Start Highest point End
(mag) Time Altitude Azimuth Time Altitude Azimuth Time Altitude Azimuth
Cosmos 2333 Rocket 3.7 00:21:21 32° NNW 00:21:21 32° NNW 00:25:18 10° N
Cosmos 2237 Rocket 3.8 00:26:25 31° NNW 00:26:25 31° NNW 00:29:39 10° N
ATLAS 2AS CENTAUR R/B 4.1 00:32:49 33° ENE 00:32:49 33° ENE 00:37:09 10° NE
Cosmos 2278 Rocket 3.9 00:25:09 10° NNW 00:27:48 28° NW 00:27:48 28° NW
ATLAS 3B R/B 3.9 01:00:54 10° NNW 01:06:04 35° NNE 01:06:04 35° NNE
Cosmos 2369 Rocket 4.2 01:23:25 10° N 01:26:15 23° NNE 01:26:15 23° NNE
USA 215 4.5 01:36:13 10° NE 01:39:38 34° NE 01:39:38 34° NE
SL-16 R/B 4.3 01:46:54 21° NNW 01:46:54 21° NNW 01:49:42 10° N
Cosmos 1943 Rocket 4.3 01:42:53 10° N 01:46:25 21° NE 01:46:25 21° NE
ATLAS 2AS CENTAUR R/B 3.9 02:20:12 37° NW 02:20:42 37° NW 02:28:08 10° NNE
NOSS 3-2 (A) 4.5 02:29:29 10° NNW 02:36:56 57° NE 02:38:59 46° E
Lacrosse 5 rocket 4.1 03:05:58 16° E 03:05:58 16° E 03:07:21 10° ENE
Resurs 1-4 Rocket 3.5 03:04:24 10° NNE 03:08:31 31° E 03:08:31 31° E
Cosmos 2369 Rocket 4.4 03:07:10 10° NW 03:08:01 14° NW 03:08:01 14° NW
CZ-2D R/B 3.1 03:14:26 10° NNE 03:18:55 39° E 03:18:55 39° E
Cosmos 1680 Rocket 4.3 03:23:12 47° N 03:23:12 47° N 03:26:56 10° NNE
RESURS DK-1 4.4 03:25:43 26° NNE 03:25:43 26° NNE 03:27:35 10° NNE
USA 215 4.3 03:19:39 10° NNE 03:25:23 34° NNW 03:26:58 30° WNW
COSMOS 2455 3.2 03:22:05 10° NNW 03:28:04 62° ENE 03:29:08 53° ESE
Cosmos 1943 Rocket 3.9 03:25:47 10° NNW 03:27:54 23° NW 03:27:54 23° NW
ADEOS 4.2 03:26:30 10° NNE 03:31:11 51° E 03:31:11 51° E
COSMOS 2406 3.3 03:35:40 74° NNE 03:35:40 74° NNE 03:40:53 10° NNE
IRS-1D 3.9 03:33:34 10° NNE 03:38:24 63° ENE 03:38:24 63° ENE
Meteor 2-8 Rocket 4.3 03:41:08 87° SE 03:41:11 87° E 03:47:21 10° N
NOSS 3-2 (C) 3.9 03:39:22 10° NW 03:47:01 74° WSW 03:50:12 41° SSE
ARIANE 5 R/B 2.6 03:44:43 10° NNE 03:49:48 77° ENE 03:49:48 77° ENE
Cosmos 1821 Rocket 4.0 03:43:58 10° N 03:50:06 77° E 03:51:18 58° SSE
SL-16 R/B 2.4 03:51:39 65° SSE 03:52:40 90° WSW 03:58:52 10° NNW
COBE Rocket 4.1 03:48:04 10° NNE 03:53:04 65° E 03:53:04 65° E
Cosmos 1371 Rocket 4.2 03:50:15 10° NNW 03:55:38 72° ENE 03:56:34 58° SE
USA 267 3.2 03:49:36 10° SE 03:56:09 81° NE 04:02:42 10° NW
Cosmos 1825 Rocket 4.1 03:58:07 54° N 03:58:07 54° N 04:01:33 10° N
CENTAUR R/B 3.8 03:50:08 10° NNW 03:57:54 54° NE 04:06:06 10° SE
ADEOS Rocket 3.0 03:52:35 10° NNE 03:58:43 89° WNW 04:00:01 61° SSW
Cosmos 2239 Rocket 4.3 03:54:20 10° N 04:00:31 85° W 04:01:34 64° S
Cosmos 1953 3.1 03:59:46 10° N 04:02:57 49° NNE 04:02:57 49° NNE
GEOS 3 Rocket 3.8 04:00:24 10° NNE 04:05:36 58° NW 04:05:55 57° WNW
Cosmos 1818 3.6 04:07:00 65° SSE 04:07:35 72° ESE 04:13:02 10° NE
Cosmos 1535 Rocket 4.3 04:01:42 10° N 04:07:56 79° W 04:09:16 57° SSW
COSMOS 2487 4.5 04:09:56 23° ESE 04:10:05 23° E 04:12:58 10° NE
Cosmos 1605 Rocket 4.4 04:04:33 10° N 04:10:41 59° E 04:15:44 15° SSE
NOSS 2-2 (D) 3.6 04:11:50 68° NNE 04:11:50 68° NNE 04:15:47 10° NNE
Cosmos 1934 Rocket 3.9 04:05:54 10° N 04:12:13 90° ESE 04:14:55 37° S
Cosmos 1656 Rocket 4.4 04:08:18 10° NNW 04:11:51 37° WNW 04:11:51 37° WNW
Okean O Rocket 4.2 04:11:25 10° NE 04:14:19 17° E 04:17:11 10° SE
ADEOS II 4.3 04:11:16 10° NE 04:15:07 20° E 04:18:56 10° SE
UNKNOWN OBJECT B 3.0 04:12:18 10° NNE 04:16:04 72° ENE 04:16:04 72° ENE
Cosmos 1758 4.0 04:16:10 10° NNW 04:19:11 46° NNW 04:19:11 46° NNW
NOSS 2-2 (C) 3.7 04:29:42 54° WNW 04:29:45 54° NW 04:34:10 10° NNE
Tiangong 1 2.7 04:33:00 29° NNE 04:33:00 29° NNE 04:35:19 10° ENE
Cosmos 1733 3.1 04:36:46 10° N 04:40:34 87° E 04:41:23 53° S
Cosmos 2098 Rocket 2.7 04:39:26 10° N 04:41:44 51° N 04:41:44 51° N
Lacrosse 5 rocket 2.2 04:41:40 38° WNW 04:42:39 44° NW 04:47:07 10° NNE
Delta 2 Rocket 2.8 04:45:44 65° SE 04:45:44 65° SE 04:48:47 10° E
USA 161 2.5 04:48:14 37° NNW 04:48:14 37° NNW 04:50:09 10° NNW
MOS 1 Rocket 3.0 04:43:27 10° N 04:47:49 82° WNW 04:49:34 37° SSW
Cosmos 2278 4.4 04:42:11 10° NNW 04:47:49 55° ENE 04:53:23 10° SE
Cosmos 389 Rocket 2.4 04:44:26 10° N 04:48:04 87° W 04:49:03 46° S
Cosmos 1624 Rocket 4.3 04:43:31 10° NNW 04:48:27 43° WSW 04:49:36 37° SW
Resurs 1-4 Rocket 3.1 04:44:22 10° N 04:48:48 28° WNW 04:49:36 27° W
Cosmos 1758 Rocket 4.5 04:51:05 31° WNW 04:51:05 31° WNW 04:54:54 10° NNW
Cosmos 1271 Rocket 4.5 04:47:52 10° NW 04:49:21 19° NW 04:49:21 19° NW
Cosmos 374 Rocket 4.3 04:47:40 10° NW 04:51:21 55° WSW 04:55:33 10° SSE
Cosmos-2242 2.9 04:48:32 10° NNW 04:52:56 71° W 04:55:20 26° S
CZ-4B R/B 4.0 04:50:13 10° NNE 04:54:26 48° E 04:58:38 11° S
Cosmos 2369 4.2 04:49:37 10° NNW 04:55:20 63° ENE 05:00:59 10° SSE
Meteor 2-5 Rocket 3.7 04:52:46 20° S 04:56:53 89° W 05:02:43 10° N
CZ-2D R/B 3.4 04:55:05 10° NNW 04:59:10 23° WNW 05:00:15 22° W
MOS 1-B 4.3 04:55:30 10° N 05:01:18 75° WNW 05:05:27 20° SSW
Cosmos 921 Rocket 3.7 04:57:32 10° NW 05:01:38 36° W 05:02:20 34° WSW
Cosmos 2056 Rocket 4.1 04:57:01 10° NW 05:01:48 35° W 05:03:28 28° SW
Cosmos 2082 Rocket 2.2 05:08:27 16° SSW 05:13:03 86° ESE 05:18:47 10° NNE
COSMOS 2455 4.3 05:09:27 10° WNW 05:12:08 17° W 05:12:08 17° W
Cosmos 1727 Rocket 4.3 05:10:06 21° SW 05:13:56 46° W 05:19:52 10° N
Cosmos 1833 Rocket 2.7 05:09:32 15° SSW 05:14:17 80° ESE 05:19:55 10° NNE
Cosmos 1980 Rocket 4.5 05:12:10 10° N 05:17:00 28° ENE 05:21:46 10° ESE
DNEPR-1 R/B 3.4 05:13:08 10° NNW 05:17:22 79° WSW 05:21:59 10° SSE
Cosmos 158 Rocket 4.0 05:15:17 11° SSW 05:20:00 79° ESE 05:25:08 10° NNE
Cosmos 1656 3.9 05:15:24 10° NNW 05:20:50 70° ENE 05:26:14 10° SSE
CZ-4B R/B 3.2 05:18:23 10° NNE 05:23:46 79° ESE 05:29:03 10° S
PAYLOAD B 4.2 05:18:19 10° NNE 05:23:55 88° ESE 05:29:27 10° SSW
CZ-2C R/B 4.5 05:19:47 10° SSE 05:24:06 54° ENE 05:28:27 10° N
Orbus 7S? 3.8 05:21:51 10° NNW 05:24:41 42° NE 05:27:12 10° ESE
Cosmos 2016 Rocket 4.4 05:20:41 10° N 05:26:55 67° E 05:33:11 10° SSE
Landsat 4 4.3 05:24:56 15° SSW 05:27:35 34° W 05:31:01 10° NNW
Cosmos 1707 4.0 05:27:48 20° WSW 05:28:59 23° WNW 05:32:08 10° NNW
EXPRESS MD2 4.2 05:24:47 10° NW 05:29:02 39° NNE 05:31:33 10° E
Meteor 1-31 Rocket 4.4 05:30:24 10° NNE 05:34:02 36° E 05:37:40 10° SSE
Meteor 1-16 Rocket 4.3 05:31:05 10° NNW 05:36:16 50° W 05:41:21 10° SSW
Okean 3 Rocket 3.8 05:32:06 10° S 05:36:27 73° E 05:40:52 10° N
Cosmos 1452 Rocket 3.9 05:31:58 10° NNW 05:36:54 42° WSW 05:41:48 10° S
SL-16 R/B 4.2 05:36:44 11° W 05:36:59 11° W 05:38:42 10° WNW
Cosmos 1470 4.4 05:35:48 10° NW 05:38:14 16° W 05:39:06 15° WSW
USA 267 4.2 05:34:30 10° S 05:39:31 24° WSW 05:44:35 10° WNW
ERS-2 4.2 05:37:58 10° NE 05:41:11 28° E 05:44:23 10° SSE
Cosmos 1802 Rocket 4.0 05:35:44 10° N 05:42:11 77° W 05:48:32 10° S
COSMOS 2487 4.3 05:43:51 13° W 05:45:29 17° WNW 05:47:55 10° NNW
IRS-1C Rocket 4.2 05:40:29 10° N 05:45:41 61° WNW 05:50:52 10° SSW
CENTAUR R/B 3.6 05:41:17 10° NW 05:48:29 36° WSW 05:55:57 10° S
Cosmos 1459 Rocket 4.1 05:44:10 10° NNW 05:50:09 55° W 05:56:13 10° SSW
GPS 2-05 Rocket1 3.2 05:47:25 13° WSW 05:50:20 50° SSE 05:53:41 10° E
Okean O Rocket 2.2 05:46:42 10° N 05:50:48 38° WNW 05:54:51 10° SW
BREEZE-M DEB (TANK) 3.9 05:43:07 10° SW 05:51:39 57° SSE 05:54:56 10° ENE
Cosmos 1420 Rocket 4.3 05:48:34 10° NNW 05:53:40 47° WSW 05:58:41 10° S
ADEOS II 2.5 05:50:02 10° N 05:55:00 44° WNW 05:59:56 10° SW
Cosmos 1725 Rocket 4.2 05:51:49 10° N 05:58:06 82° E 06:04:25 10° S
Meteor 1-24 Rocket 4.2 05:55:11 10° SW 06:00:14 39° WNW 06:05:30 10° N
Timation 2 Rocket 4.2 05:54:11 10° SSW 06:00:51 65° WNW 06:07:18 10° NNE
Cosmos 1766 Rocket 4.2 05:56:38 10° S 06:01:02 62° E 06:05:28 10° NNE
In-Cosmos 22 4.2 05:56:34 10° SSW 06:01:48 57° W 06:07:00 10° N
SL-08 R/B 4.5 06:02:20 10° NNW 06:08:24 68° W 06:14:24 10° S
Tiangong 1 0.8 06:05:51 10° WNW 06:08:40 64° SSW 06:11:28 10° SE
Cosmos 1076 Rocket 3.5 06:07:01 10° SSW 06:11:13 65° W 06:15:26 10° N
Cosmos 1110 Rocket 4.4 06:06:43 10° NNW 06:12:02 72° ENE 06:17:17 10° SSE
